Time,TemperatureF,DewpointF,PressureIn,WindDirection,WindDirectionDegrees,WindSpeedMPH,WindSpeedGustMPH,Humidity,HourlyPrecipIn,Conditions,Clouds,dailyrainin,SolarRadiationWatts/m^2,SoftwareType,DateUTC
2013-02-27 00:04:00,33.7,32.9,29.48,North,7,3.0,10.0,97,0.00,CLR,CLR,0.00,0.0,WeatherDisplay:10.37,2013-02-27 06:04:00,
2013-02-27 00:14:00,33.6,32.8,29.48,North,357,5.0,6.0,97,0.00,CLR,CLR,0.00,0.0,WeatherDisplay:10.37,2013-02-27 06:14:00,
2013-02-27 00:19:00,33.6,32.8,29.48,North,9,3.0,6.0,97,0.00,CLR,CLR,0.00,0.0,WeatherDisplay:10.37,2013-02-27 06:19:00,
2013-02-27 00:24:00,33.6,32.8,29.48,North,359,3.0,6.0,97,0.00,CLR,CLR,0.00,0.0,WeatherDisplay:10.37,2013-02-27 06:24:00,
2013-02-27 00:29:00,33.6,32.8,29.48,North,2,3.0,6.0,97,0.00,CLR,CLR,0.00,0.0,WeatherDisplay:10.37,2013-02-27 06:29:00,
2013-02-27 00:34:00,33.6,32.8,29.48,North,358,2.0,6.0,97,0.00,CLR,CLR,0.00,0.0,WeatherDisplay:10.37,2013-02-27 06:34:00,
2013-02-27 00:44:00,33.6,32.8,29.49,North,358,1.0,3.0,97,0.00,CLR,CLR,0.00,0.0,WeatherDisplay:10.37,2013-02-27 06:44:00,
2013-02-27 00:49:00,33.5,32.8,29.49,North,6,1.0,4.0,97,0.00,CLR,CLR,0.00,0.0,WeatherDisplay:10.37,2013-02-27 06:49:00,
2013-02-27 00:54:00,33.5,32.7,29.49,North,4,1.0,4.0,97,0.00,CLR,CLR,0.00,0.0,WeatherDisplay:10.37,2013-02-27 06:54:00,
2013-02-27 00:59:00,33.5,32.7,29.49,North,10,1.0,4.0,97,0.00,CLR,CLR,0.00,0.0,WeatherDisplay:10.37,2013-02-27 06:59:00,
2013-02-27 01:04:00,33.5,32.7,29.49,North,7,1.0,3.0,97,0.00,CLR,CLR,0.00,0.0,WeatherDisplay:10.37,2013-02-27 07:04:00,
2013-02-27 01:09:00,33.5,32.7,29.49,North,355,1.0,3.0,97,0.00,CLR,CLR,0.00,0.0,WeatherDisplay:10.37,2013-02-27 07:09:00,
2013-02-27 01:14:00,33.5,32.7,29.49,North,350,1.0,2.0,97,0.00,CLR,CLR,0.00,0.0,WeatherDisplay:10.37,2013-02-27 07:14:00,
2013-02-27 01:19:00,33.5,32.7,29.49,NNW,339,0.0,1.0,97,0.00,CLR,CLR,0.00,0.0,WeatherDisplay:10.37,2013-02-27 07:19:00,
2013-02-27 01:24:00,33.4,32.7,29.49,NNW,332,0.0,0.0,97,0.00,CLR,CLR,0.00,0.0,WeatherDisplay:10.37,2013-02-27 07:24:00,
2013-02-27 01:29:00,33.4,32.6,29.49,NNW,332,0.0,0.0,97,0.00,CLR,CLR,0.00,0.0,WeatherDisplay:10.37,2013-02-27 07:29:00,
2013-02-27 01:34:00,33.4,32.6,29.49,NNW,332,0.0,0.0,97,0.00,CLR,CLR,0.00,0.0,WeatherDisplay:10.37,2013-02-27 07:34:00,
2013-02-27 01:39:00,33.4,32.6,29.49,NNW,332,0.0,0.0,97,0.00,CLR,CLR,0.00,0.0,WeatherDisplay:10.37,2013-02-27 07:39:00,
2013-02-27 01:44:00,33.4,32.6,29.49,NNW,332,0.0,0.0,97,0.00,CLR,CLR,0.00,0.0,WeatherDisplay:10.37,2013-02-27 07:44:00,
2013-02-27 01:49:00,33.4,32.6,29.49,NNW,332,0.0,0.0,97,0.00,CLR,CLR,0.00,0.0,WeatherDisplay:10.37,2013-02-27 07:49:00,
2013-02-27 01:54:00,33.4,32.6,29.49,NNW,332,0.0,0.0,97,0.00,CLR,CLR,0.00,0.0,WeatherDisplay:10.37,2013-02-27 07:54:00,
2013-02-27 01:59:00,33.4,32.6,29.49,NNW,332,0.0,0.0,97,0.00,CLR,CLR,0.00,0.0,WeatherDisplay:10.37,2013-02-27 07:59:00,
2013-02-27 02:04:00,33.4,32.6,29.49,NNW,332,0.0,0.0,97,0.00,CLR,CLR,0.00,0.0,WeatherDisplay:10.37,2013-02-27 08:04:00,
2013-02-27 02:09:00,33.4,32.6,29.49,NNW,332,0.0,0.0,97,0.00,CLR,CLR,0.00,0.0,WeatherDisplay:10.37,2013-02-27 08:09:00,
2013-02-27 02:19:00,33.4,32.6,29.49,NNW,332,0.0,0.0,97,0.00,CLR,CLR,0.00,0.0,WeatherDisplay:10.37,2013-02-27 08:19:00,
2013-02-27 02:24:00,33.3,32.5,29.49,NNW,332,0.0,0.0,97,0.00,CLR,CLR,0.00,0.0,WeatherDisplay:10.37,2013-02-27 08:24:00,
2013-02-27 02:29:00,33.3,32.5,29.49,NNW,332,0.0,0.0,97,0.00,CLR,CLR,0.00,0.0,WeatherDisplay:10.37,2013-02-27 08:29:00,
2013-02-27 02:34:00,33.3,32.6,29.49,NNW,332,0.0,0.0,97,0.00,CLR,CLR,0.00,0.0,WeatherDisplay:10.37,2013-02-27 08:34:00,
2013-02-27 02:39:00,33.3,32.6,29.49,NNW,332,0.0,0.0,97,0.00,CLR,CLR,0.00,0.0,WeatherDisplay:10.37,2013-02-27 08:39:00,
2013-02-27 02:44:00,33.3,32.5,29.49,NNW,332,0.0,0.0,97,0.00,CLR,CLR,0.00,0.0,WeatherDisplay:10.37,2013-02-27 08:44:00,
2013-02-27 02:49:00,33.4,32.6,29.49,NNW,332,0.0,0.0,97,0.00,CLR,CLR,0.00,0.0,WeatherDisplay:10.37,2013-02-27 08:49:00,
2013-02-27 02:54:00,33.4,32.6,29.49,NNW,332,0.0,0.0,97,0.00,CLR,CLR,0.00,0.0,WeatherDisplay:10.37,2013-02-27 08:54:00,
2013-02-27 02:59:00,33.4,32.6,29.49,NNW,331,0.0,0.0,97,0.00,CLR,CLR,0.00,0.0,WeatherDisplay:10.37,2013-02-27 08:59:00,
2013-02-27 03:09:00,33.4,32.6,29.49,NW,324,0.0,0.0,97,0.00,CLR,CLR,0.00,0.0,WeatherDisplay:10.37,2013-02-27 09:09:00,
2013-02-27 03:14:00,33.4,32.6,29.48,NW,324,0.0,4.0,97,0.00,CLR,CLR,0.00,0.0,WeatherDisplay:10.37,2013-02-27 09:14:00,
2013-02-27 03:19:00,33.4,32.6,29.48,NW,323,2.0,4.0,97,0.00,CLR,CLR,0.00,0.0,WeatherDisplay:10.37,2013-02-27 09:19:00,
2013-02-27 03:24:00,33.4,32.6,29.48,NW,322,2.0,4.0,97,0.00,CLR,CLR,0.00,0.0,WeatherDisplay:10.37,2013-02-27 09:24:00,
2013-02-27 03:29:00,33.4,32.6,29.48,NW,323,0.0,3.0,97,0.00,CLR,CLR,0.00,0.0,WeatherDisplay:10.37,2013-02-27 09:29:00,
2013-02-27 03:34:00,33.4,32.6,29.48,NNW,331,1.0,3.0,97,0.00,CLR,CLR,0.00,0.0,WeatherDisplay:10.37,2013-02-27 09:34:00,
2013-02-27 03:39:00,33.4,32.7,29.49,NW,325,2.0,4.0,97,0.00,CLR,CLR,0.00,0.0,WeatherDisplay:10.37,2013-02-27 09:39:00,
2013-02-27 03:44:00,33.5,32.7,29.49,NW,318,2.0,4.0,97,0.00,CLR,CLR,0.00,0.0,WeatherDisplay:10.37,2013-02-27 09:44:00,
2013-02-27 03:49:00,33.5,32.7,29.49,NW,313,1.0,4.0,97,0.00,CLR,CLR,0.00,0.0,WeatherDisplay:10.37,2013-02-27 09:49:00,
2013-02-27 03:54:00,33.5,32.7,29.49,NW,308,1.0,3.0,97,0.00,CLR,CLR,0.00,0.0,WeatherDisplay:10.37,2013-02-27 09:54:00,
2013-02-27 03:59:00,33.4,32.7,29.49,NW,306,2.0,3.0,97,0.00,CLR,CLR,0.00,0.0,WeatherDisplay:10.37,2013-02-27 09:59:00,
2013-02-27 04:04:00,33.4,32.6,29.49,NW,306,2.0,3.0,97,0.00,CLR,CLR,0.00,0.0,WeatherDisplay:10.37,2013-02-27 10:04:00,
2013-02-27 04:09:00,33.4,32.6,29.49,NW,306,1.0,3.0,97,0.00,CLR,CLR,0.00,0.0,WeatherDisplay:10.37,2013-02-27 10:09:00,
2013-02-27 04:14:00,33.4,32.6,29.49,NW,306,2.0,3.0,97,0.00,CLR,CLR,0.00,0.0,WeatherDisplay:10.37,2013-02-27 10:14:00,
2013-02-27 04:19:00,33.4,32.6,29.49,NW,306,2.0,3.0,97,0.00,CLR,CLR,0.00,0.0,WeatherDisplay:10.37,2013-02-27 10:19:00,
2013-02-27 04:24:00,33.4,32.6,29.50,WNW,302,2.0,4.0,97,0.00,CLR,CLR,0.00,0.0,WeatherDisplay:10.37,2013-02-27 10:24:00,
2013-02-27 04:29:00,33.4,32.6,29.50,WNW,297,2.0,4.0,97,0.00,CLR,CLR,0.00,0.0,WeatherDisplay:10.37,2013-02-27 10:29:00,
2013-02-27 04:34:00,33.4,32.6,29.50,WNW,294,2.0,4.0,97,0.00,CLR,CLR,0.00,0.0,WeatherDisplay:10.37,2013-02-27 10:34:00,
2013-02-27 04:39:00,33.4,32.6,29.50,WNW,294,3.0,4.0,97,0.00,CLR,CLR,0.00,0.0,WeatherDisplay:10.37,2013-02-27 10:39:00,
2013-02-27 04:44:00,33.4,32.6,29.50,WNW,287,2.0,4.0,97,0.00,CLR,CLR,0.00,0.0,WeatherDisplay:10.37,2013-02-27 10:44:00,
2013-02-27 04:49:00,33.4,32.6,29.50,WNW,285,2.0,4.0,97,0.00,CLR,CLR,0.00,0.0,WeatherDisplay:10.37,2013-02-27 10:49:00,
2013-02-27 04:54:00,33.4,32.6,29.51,WNW,282,2.0,4.0,97,0.00,CLR,CLR,0.00,0.0,WeatherDisplay:10.37,2013-02-27 10:54:00,
2013-02-27 04:59:00,33.4,32.6,29.51,WNW,286,2.0,4.0,97,0.00,CLR,CLR,0.00,0.0,WeatherDisplay:10.37,2013-02-27 10:59:00,
2013-02-27 05:04:00,33.4,32.6,29.51,WNW,291,2.0,4.0,97,0.00,CLR,CLR,0.00,0.0,WeatherDisplay:10.37,2013-02-27 11:04:00,
2013-02-27 05:09:00,33.4,32.6,29.51,WNW,293,2.0,4.0,97,0.00,CLR,CLR,0.00,0.0,WeatherDisplay:10.37,2013-02-27 11:09:00,
2013-02-27 05:14:00,33.4,32.6,29.51,WNW,291,2.0,5.0,97,0.00,CLR,CLR,0.00,0.0,WeatherDisplay:10.37,2013-02-27 11:14:00,
2013-02-27 05:24:00,33.4,32.6,29.52,WNW,297,1.0,3.0,97,0.00,CLR,CLR,0.00,0.0,WeatherDisplay:10.37,2013-02-27 11:24:00,
2013-02-27 05:29:00,33.4,32.6,29.52,WNW,295,2.0,4.0,97,0.00,CLR,CLR,0.00,0.0,WeatherDisplay:10.37,2013-02-27 11:29:00,
2013-02-27 05:34:00,33.4,32.6,29.52,WNW,292,2.0,3.0,97,0.00,CLR,CLR,0.00,0.0,WeatherDisplay:10.37,2013-02-27 11:34:00,
2013-02-27 05:39:00,33.4,32.6,29.52,WNW,292,2.0,4.0,97,0.00,CLR,CLR,0.00,0.0,WeatherDisplay:10.37,2013-02-27 11:39:00,
2013-02-27 05:44:00,33.4,32.6,29.52,WNW,288,2.0,4.0,97,0.00,CLR,CLR,0.00,0.0,WeatherDisplay:10.37,2013-02-27 11:44:00,
2013-02-27 05:49:00,33.4,32.6,29.52,WNW,284,2.0,4.0,97,0.00,CLR,CLR,0.00,0.0,WeatherDisplay:10.37,2013-02-27 11:49:00,
2013-02-27 05:54:00,33.4,32.6,29.52,WNW,288,2.0,4.0,97,0.00,CLR,CLR,0.00,0.0,WeatherDisplay:10.37,2013-02-27 11:54:00,
2013-02-27 05:59:00,33.4,32.6,29.53,WNW,291,2.0,4.0,97,0.00,CLR,CLR,0.00,0.0,WeatherDisplay:10.37,2013-02-27 11:59:00,
2013-02-27 06:04:00,33.4,32.6,29.53,WNW,292,3.0,5.0,97,0.00,CLR,CLR,0.00,0.0,WeatherDisplay:10.37,2013-02-27 12:04:00,
2013-02-27 06:09:00,33.4,32.6,29.52,WNW,293,2.0,4.0,97,0.00,CLR,CLR,0.00,0.0,WeatherDisplay:10.37,2013-02-27 12:09:00,
2013-02-27 06:14:00,33.4,32.6,29.52,WNW,299,2.0,4.0,97,0.00,CLR,CLR,0.00,0.0,WeatherDisplay:10.37,2013-02-27 12:14:00,
2013-02-27 06:19:00,33.3,32.5,29.52,WNW,302,3.0,4.0,97,0.00,CLR,CLR,0.00,0.0,WeatherDisplay:10.37,2013-02-27 12:19:00,
2013-02-27 06:24:00,33.3,32.5,29.52,NW,304,2.0,4.0,97,0.00,CLR,CLR,0.00,0.0,WeatherDisplay:10.37,2013-02-27 12:24:00,
2013-02-27 06:29:00,33.2,32.5,29.52,WNW,303,3.0,4.0,97,0.00,CLR,CLR,0.00,0.0,WeatherDisplay:10.37,2013-02-27 12:29:00,
2013-02-27 06:34:00,33.2,32.4,29.52,NW,304,2.0,5.0,97,0.00,CLR,CLR,0.00,0.0,WeatherDisplay:10.37,2013-02-27 12:34:00,
2013-02-27 06:39:00,33.2,32.4,29.52,NW,311,3.0,5.0,97,0.00,CLR,CLR,0.00,0.0,WeatherDisplay:10.37,2013-02-27 12:39:00,
2013-02-27 06:44:00,33.2,32.4,29.52,NW,316,3.0,5.0,97,0.00,CLR,CLR,0.00,0.0,WeatherDisplay:10.37,2013-02-27 12:44:00,
2013-02-27 06:49:00,33.2,32.4,29.52,NW,311,2.0,5.0,97,0.00,CLR,CLR,0.00,0.0,WeatherDisplay:10.37,2013-02-27 12:49:00,
2013-02-27 06:54:00,33.2,32.4,29.52,NW,307,2.0,4.0,97,0.00,CLR,CLR,0.00,0.0,WeatherDisplay:10.37,2013-02-27 12:54:00,
2013-02-27 06:59:00,33.2,32.4,29.52,NW,307,2.0,4.0,97,0.00,CLR,CLR,0.00,0.0,WeatherDisplay:10.37,2013-02-27 12:59:00,
2013-02-27 07:04:00,33.2,32.4,29.53,NW,309,2.0,4.0,97,0.00,CLR,CLR,0.00,0.0,WeatherDisplay:10.37,2013-02-27 13:04:00,
2013-02-27 07:09:00,33.2,32.4,29.53,NW,311,2.0,4.0,97,0.00,CLR,CLR,0.00,0.0,WeatherDisplay:10.37,2013-02-27 13:09:00,
2013-02-27 07:14:00,33.2,32.4,29.53,NW,310,2.0,4.0,97,0.00,CLR,CLR,0.00,0.0,WeatherDisplay:10.37,2013-02-27 13:14:00,
2013-02-27 07:19:00,33.2,32.4,29.53,NW,305,3.0,4.0,97,0.00,CLR,CLR,0.00,0.0,WeatherDisplay:10.37,2013-02-27 13:19:00,
2013-02-27 07:24:00,33.2,32.4,29.53,WNW,302,2.0,4.0,97,0.01,RA,RA,0.01,0.0,WeatherDisplay:10.37,2013-02-27 13:24:00,
2013-02-27 07:29:00,33.2,32.4,29.53,WNW,302,2.0,5.0,97,0.00,RA,RA,0.01,0.0,WeatherDisplay:10.37,2013-02-27 13:29:00,
2013-02-27 07:34:00,33.2,32.4,29.53,NW,304,2.0,5.0,97,0.00,CLR,CLR,0.01,0.0,WeatherDisplay:10.37,2013-02-27 13:34:00,
2013-02-27 07:39:00,33.2,32.4,29.54,NW,306,2.0,7.0,97,0.00,CLR,CLR,0.01,0.0,WeatherDisplay:10.37,2013-02-27 13:39:00,
2013-02-27 07:44:00,33.3,32.5,29.54,NW,305,3.0,4.0,97,0.00,CLR,CLR,0.01,0.0,WeatherDisplay:10.37,2013-02-27 13:44:00,
2013-02-27 07:49:00,33.3,32.5,29.54,WNW,302,2.0,5.0,97,0.00,CLR,CLR,0.01,0.0,WeatherDisplay:10.37,2013-02-27 13:49:00,
2013-02-27 07:54:00,33.3,32.5,29.54,WNW,300,2.0,5.0,97,0.00,CLR,CLR,0.01,0.0,WeatherDisplay:10.37,2013-02-27 13:54:00,
2013-02-27 07:59:00,33.3,32.5,29.55,WNW,295,3.0,4.0,97,0.00,CLR,CLR,0.01,0.0,WeatherDisplay:10.37,2013-02-27 13:59:00,
2013-02-27 08:04:00,33.3,32.6,29.55,WNW,293,2.0,5.0,97,0.00,CLR,CLR,0.01,0.0,WeatherDisplay:10.37,2013-02-27 14:04:00,
2013-02-27 08:09:00,33.4,32.6,29.55,WNW,292,2.0,4.0,97,0.00,CLR,CLR,0.01,0.0,WeatherDisplay:10.37,2013-02-27 14:09:00,
2013-02-27 08:14:00,33.4,32.6,29.55,WNW,287,2.0,6.0,97,0.00,CLR,CLR,0.01,0.0,WeatherDisplay:10.37,2013-02-27 14:14:00,
2013-02-27 08:24:00,33.5,32.7,29.55,WNW,282,2.0,5.0,97,0.00,CLR,CLR,0.01,0.0,WeatherDisplay:10.37,2013-02-27 14:24:00,
2013-02-27 08:29:00,33.5,32.8,29.55,WNW,283,2.0,4.0,97,0.00,CLR,CLR,0.01,0.0,WeatherDisplay:10.37,2013-02-27 14:29:00,
2013-02-27 08:34:00,33.6,32.9,29.55,WNW,287,2.0,4.0,97,0.00,CLR,CLR,0.01,0.0,WeatherDisplay:10.37,2013-02-27 14:34:00,
2013-02-27 08:39:00,33.7,32.9,29.56,WNW,285,3.0,4.0,97,0.01,RA,RA,0.02,0.0,WeatherDisplay:10.37,2013-02-27 14:39:00,
2013-02-27 08:44:00,33.7,32.9,29.56,WNW,283,2.0,4.0,97,0.00,RA,RA,0.02,0.0,WeatherDisplay:10.37,2013-02-27 14:44:00,
2013-02-27 08:49:00,33.6,32.9,29.56,West,279,2.0,4.0,97,0.00,CLR,CLR,0.02,0.0,WeatherDisplay:10.37,2013-02-27 14:49:00,
2013-02-27 08:54:00,33.6,32.8,29.56,West,279,2.0,4.0,97,0.00,CLR,CLR,0.02,0.0,WeatherDisplay:10.37,2013-02-27 14:54:00,
2013-02-27 08:59:00,33.6,32.8,29.56,WNW,284,3.0,6.0,97,0.00,CLR,CLR,0.02,0.0,WeatherDisplay:10.37,2013-02-27 14:59:00,
2013-02-27 09:04:00,33.6,32.8,29.56,WNW,287,5.0,6.0,97,0.01,RA,RA,0.03,0.0,WeatherDisplay:10.37,2013-02-27 15:04:00,
2013-02-27 09:09:00,33.5,32.7,29.56,WNW,290,5.0,6.0,97,0.00,RA,RA,0.03,0.0,WeatherDisplay:10.37,2013-02-27 15:09:00,
2013-02-27 09:14:00,33.5,32.7,29.56,WNW,290,3.0,7.0,97,0.00,CLR,CLR,0.03,0.0,WeatherDisplay:10.37,2013-02-27 15:14:00,
2013-02-27 09:19:00,33.4,32.6,29.56,WNW,291,3.0,6.0,97,0.00,CLR,CLR,0.03,0.0,WeatherDisplay:10.37,2013-02-27 15:19:00,
2013-02-27 09:24:00,33.3,32.5,29.56,WNW,285,3.0,5.0,97,0.01,RA,RA,0.04,0.0,WeatherDisplay:10.37,2013-02-27 15:24:00,
2013-02-27 09:29:00,33.3,32.5,29.56,West,279,3.0,6.0,97,0.00,RA,RA,0.04,0.0,WeatherDisplay:10.37,2013-02-27 15:29:00,
2013-02-27 09:34:00,33.2,32.4,29.56,West,281,2.0,5.0,97,0.00,CLR,CLR,0.04,0.0,WeatherDisplay:10.37,2013-02-27 15:34:00,
2013-02-27 09:39:00,33.2,32.4,29.56,West,281,2.0,6.0,97,0.00,CLR,CLR,0.04,0.0,WeatherDisplay:10.37,2013-02-27 15:39:00,
2013-02-27 09:44:00,33.1,32.3,29.56,West,280,3.0,6.0,97,0.00,CLR,CLR,0.04,0.0,WeatherDisplay:10.37,2013-02-27 15:44:00,
2013-02-27 09:49:00,33.0,32.0,29.56,WNW,288,3.0,6.0,96,0.00,CLR,CLR,0.04,0.0,WeatherDisplay:10.37,2013-02-27 15:49:00,
2013-02-27 09:54:00,33.0,32.2,29.56,WNW,292,3.0,7.0,97,0.00,CLR,CLR,0.04,0.0,WeatherDisplay:10.37,2013-02-27 15:54:00,
2013-02-27 09:59:00,33.0,32.3,29.56,WNW,287,3.0,6.0,97,0.00,CLR,CLR,0.04,0.0,WeatherDisplay:10.37,2013-02-27 15:59:00,
2013-02-27 10:04:00,33.0,32.0,29.56,WNW,285,3.0,7.0,96,0.01,RA,RA,0.05,0.0,WeatherDisplay:10.37,2013-02-27 16:04:00,
2013-02-27 10:14:00,33.0,32.0,29.56,WNW,288,5.0,5.0,96,0.00,CLR,CLR,0.05,0.0,WeatherDisplay:10.37,2013-02-27 16:14:00,
2013-02-27 10:19:00,33.0,32.0,29.56,WNW,288,3.0,6.0,96,0.00,CLR,CLR,0.05,0.0,WeatherDisplay:10.37,2013-02-27 16:19:00,
2013-02-27 10:24:00,33.0,32.0,29.56,West,281,2.0,6.0,96,0.00,CLR,CLR,0.05,0.0,WeatherDisplay:10.37,2013-02-27 16:24:00,
2013-02-27 10:29:00,33.0,32.0,29.56,West,281,3.0,6.0,96,0.00,CLR,CLR,0.05,0.0,WeatherDisplay:10.37,2013-02-27 16:29:00,
2013-02-27 10:34:00,33.0,32.0,29.56,WNW,291,5.0,8.0,96,0.01,RA,RA,0.06,0.0,WeatherDisplay:10.37,2013-02-27 16:34:00,
2013-02-27 10:39:00,33.1,32.1,29.56,WNW,291,5.0,8.0,96,0.00,RA,RA,0.06,0.0,WeatherDisplay:10.37,2013-02-27 16:39:00,
2013-02-27 10:44:00,33.0,31.7,29.56,WNW,287,6.0,9.0,95,0.00,CLR,CLR,0.06,0.0,WeatherDisplay:10.37,2013-02-27 16:44:00,
2013-02-27 10:49:00,33.0,31.7,29.56,WNW,285,3.0,7.0,95,0.00,CLR,CLR,0.06,0.0,WeatherDisplay:10.37,2013-02-27 16:49:00,
2013-02-27 10:54:00,33.0,31.7,29.56,WNW,284,5.0,7.0,95,0.00,CLR,CLR,0.06,0.0,WeatherDisplay:10.37,2013-02-27 16:54:00,
2013-02-27 10:59:00,33.0,31.4,29.56,WNW,289,6.0,8.0,94,0.00,CLR,CLR,0.06,0.0,WeatherDisplay:10.37,2013-02-27 16:59:00,
2013-02-27 11:04:00,33.0,31.5,29.56,WNW,286,6.0,7.0,94,0.00,CLR,CLR,0.06,0.0,WeatherDisplay:10.37,2013-02-27 17:04:00,
2013-02-27 11:09:00,33.1,31.6,29.56,WNW,283,5.0,7.0,94,0.01,RA,RA,0.07,0.0,WeatherDisplay:10.37,2013-02-27 17:09:00,
2013-02-27 11:14:00,33.2,31.7,29.57,West,280,3.0,5.0,94,0.00,RA,RA,0.07,0.0,WeatherDisplay:10.37,2013-02-27 17:14:00,
2013-02-27 11:19:00,33.3,31.8,29.57,WNW,284,3.0,5.0,94,0.00,CLR,CLR,0.07,0.0,WeatherDisplay:10.37,2013-02-27 17:19:00,
2013-02-27 11:24:00,33.3,31.8,29.57,WNW,285,3.0,5.0,94,0.00,CLR,CLR,0.07,0.0,WeatherDisplay:10.37,2013-02-27 17:24:00,
2013-02-27 11:29:00,33.4,31.9,29.57,WNW,284,5.0,6.0,94,0.01,RA,RA,0.08,0.0,WeatherDisplay:10.37,2013-02-27 17:29:00,
2013-02-27 11:34:00,33.5,32.0,29.57,WNW,284,3.0,5.0,94,0.00,RA,RA,0.08,0.0,WeatherDisplay:10.37,2013-02-27 17:34:00,
2013-02-27 11:39:00,33.6,31.8,29.57,WNW,284,3.0,6.0,93,0.00,CLR,CLR,0.08,0.0,WeatherDisplay:10.37,2013-02-27 17:39:00,
2013-02-27 11:44:00,33.6,31.8,29.57,WNW,286,3.0,7.0,93,0.00,CLR,CLR,0.08,0.0,WeatherDisplay:10.37,2013-02-27 17:44:00,
2013-02-27 11:49:00,33.7,31.9,29.57,WNW,287,5.0,7.0,93,0.00,CLR,CLR,0.08,0.0,WeatherDisplay:10.37,2013-02-27 17:49:00,
2013-02-27 11:54:00,33.7,31.9,29.56,WNW,284,3.0,8.0,93,0.01,RA,RA,0.09,0.0,WeatherDisplay:10.37,2013-02-27 17:54:00,
2013-02-27 11:59:00,33.6,31.8,29.56,West,281,5.0,7.0,93,0.00,RA,RA,0.09,0.0,WeatherDisplay:10.37,2013-02-27 17:59:00,
2013-02-27 12:04:00,33.5,31.7,29.56,WNW,283,3.0,7.0,93,0.00,CLR,CLR,0.09,0.0,WeatherDisplay:10.37,2013-02-27 18:04:00,
2013-02-27 12:14:00,33.5,31.7,29.56,WNW,288,5.0,8.0,93,0.00,CLR,CLR,0.09,0.0,WeatherDisplay:10.37,2013-02-27 18:14:00,
2013-02-27 12:19:00,33.5,31.7,29.56,WNW,287,3.0,8.0,93,0.01,RA,RA,0.10,0.0,WeatherDisplay:10.37,2013-02-27 18:19:00,
2013-02-27 12:24:00,33.5,31.7,29.57,WNW,289,3.0,7.0,93,0.00,RA,RA,0.10,0.0,WeatherDisplay:10.37,2013-02-27 18:24:00,
2013-02-27 12:29:00,33.5,31.7,29.57,WNW,287,5.0,7.0,93,0.00,CLR,CLR,0.10,0.0,WeatherDisplay:10.37,2013-02-27 18:29:00,
2013-02-27 12:34:00,33.4,31.3,29.57,WNW,286,6.0,9.0,92,0.00,CLR,CLR,0.10,0.0,WeatherDisplay:10.37,2013-02-27 18:34:00,
2013-02-27 12:39:00,33.4,31.3,29.56,WNW,286,5.0,7.0,92,0.00,CLR,CLR,0.10,0.0,WeatherDisplay:10.37,2013-02-27 18:39:00,
2013-02-27 12:44:00,33.6,31.5,29.57,WNW,284,5.0,7.0,92,0.00,CLR,CLR,0.10,0.0,WeatherDisplay:10.37,2013-02-27 18:44:00,
2013-02-27 12:49:00,33.7,31.6,29.57,West,281,5.0,10.0,92,0.00,CLR,CLR,0.10,0.0,WeatherDisplay:10.37,2013-02-27 18:49:00,
2013-02-27 12:54:00,33.7,31.6,29.57,West,280,5.0,7.0,92,0.00,CLR,CLR,0.10,0.0,WeatherDisplay:10.37,2013-02-27 18:54:00,
2013-02-27 12:59:00,33.5,31.4,29.56,WNW,286,6.0,8.0,92,0.01,RA,RA,0.11,0.0,WeatherDisplay:10.37,2013-02-27 18:59:00,
2013-02-27 13:04:00,33.5,31.7,29.56,WNW,285,5.0,7.0,93,0.00,RA,RA,0.11,0.0,WeatherDisplay:10.37,2013-02-27 19:04:00,
2013-02-27 13:09:00,33.5,31.4,29.56,WNW,284,5.0,8.0,92,0.00,CLR,CLR,0.11,0.0,WeatherDisplay:10.37,2013-02-27 19:09:00,
2013-02-27 13:14:00,33.5,31.4,29.56,WNW,282,3.0,7.0,92,0.00,CLR,CLR,0.11,0.0,WeatherDisplay:10.37,2013-02-27 19:14:00,
2013-02-27 13:19:00,33.5,31.7,29.56,West,277,3.0,5.0,93,0.00,CLR,CLR,0.11,0.0,WeatherDisplay:10.37,2013-02-27 19:19:00,
2013-02-27 13:24:00,33.6,31.8,29.57,West,277,3.0,5.0,93,0.00,CLR,CLR,0.11,0.0,WeatherDisplay:10.37,2013-02-27 19:24:00,
2013-02-27 13:29:00,33.7,31.9,29.57,West,279,5.0,7.0,93,0.00,CLR,CLR,0.11,0.0,WeatherDisplay:10.37,2013-02-27 19:29:00,
2013-02-27 13:34:00,33.8,32.0,29.57,West,281,3.0,8.0,93,0.00,CLR,CLR,0.11,0.0,WeatherDisplay:10.37,2013-02-27 19:34:00,
2013-02-27 13:39:00,34.0,31.9,29.56,WNW,287,5.0,9.0,92,0.00,CLR,CLR,0.11,0.0,WeatherDisplay:10.37,2013-02-27 19:39:00,
2013-02-27 13:44:00,33.9,31.8,29.56,WNW,288,6.0,8.0,92,0.01,RA,RA,0.12,0.0,WeatherDisplay:10.37,2013-02-27 19:44:00,
2013-02-27 13:49:00,34.0,31.9,29.57,WNW,286,3.0,8.0,92,0.00,RA,RA,0.12,0.0,WeatherDisplay:10.37,2013-02-27 19:49:00,
2013-02-27 13:54:00,34.1,32.0,29.57,WNW,285,3.0,7.0,92,0.00,CLR,CLR,0.12,0.0,WeatherDisplay:10.37,2013-02-27 19:54:00,
2013-02-27 13:59:00,34.1,32.0,29.57,WNW,290,5.0,8.0,92,0.00,CLR,CLR,0.12,0.0,WeatherDisplay:10.37,2013-02-27 19:59:00,
2013-02-27 14:04:00,34.0,31.7,29.57,WNW,289,7.0,9.0,91,0.00,CLR,CLR,0.12,0.0,WeatherDisplay:10.37,2013-02-27 20:04:00,
2013-02-27 14:09:00,34.2,32.4,29.57,WNW,288,3.0,6.0,93,0.00,CLR,CLR,0.12,0.0,WeatherDisplay:10.37,2013-02-27 20:09:00,
2013-02-27 14:14:00,34.2,32.1,29.57,WNW,287,3.0,8.0,92,0.00,CLR,CLR,0.12,0.0,WeatherDisplay:10.37,2013-02-27 20:14:00,
2013-02-27 14:19:00,34.2,32.1,29.57,WNW,288,3.0,8.0,92,0.00,CLR,CLR,0.12,0.0,WeatherDisplay:10.37,2013-02-27 20:19:00,
2013-02-27 14:24:00,34.1,32.1,29.58,WNW,287,5.0,8.0,92,0.00,CLR,CLR,0.12,0.0,WeatherDisplay:10.37,2013-02-27 20:24:00,
2013-02-27 14:29:00,34.1,32.0,29.58,WNW,287,3.0,8.0,92,0.00,CLR,CLR,0.12,0.0,WeatherDisplay:10.37,2013-02-27 20:29:00,
2013-02-27 14:34:00,34.0,31.9,29.58,WNW,285,5.0,7.0,92,0.00,CLR,CLR,0.12,0.0,WeatherDisplay:10.37,2013-02-27 20:34:00,
2013-02-27 14:39:00,33.9,31.9,29.58,West,280,5.0,7.0,92,0.00,CLR,CLR,0.12,0.0,WeatherDisplay:10.37,2013-02-27 20:39:00,
2013-02-27 14:44:00,33.9,31.8,29.58,West,277,5.0,7.0,92,0.00,CLR,CLR,0.12,0.0,WeatherDisplay:10.37,2013-02-27 20:44:00,
2013-02-27 14:49:00,33.9,31.8,29.58,West,278,3.0,7.0,92,0.00,CLR,CLR,0.12,0.0,WeatherDisplay:10.37,2013-02-27 20:49:00,
2013-02-27 14:59:00,33.8,32.0,29.58,West,276,5.0,8.0,93,0.00,RA,RA,0.13,0.0,WeatherDisplay:10.37,2013-02-27 20:59:00,
2013-02-27 15:04:00,33.8,31.7,29.59,West,276,3.0,9.0,92,0.00,CLR,CLR,0.13,0.0,WeatherDisplay:10.37,2013-02-27 21:04:00,
2013-02-27 15:09:00,33.8,32.0,29.59,WNW,283,3.0,7.0,93,0.00,CLR,CLR,0.13,0.0,WeatherDisplay:10.37,2013-02-27 21:09:00,
2013-02-27 15:14:00,33.8,31.7,29.59,West,281,5.0,7.0,92,0.00,CLR,CLR,0.13,0.0,WeatherDisplay:10.37,2013-02-27 21:14:00,
2013-02-27 15:19:00,33.7,31.6,29.59,WNW,287,5.0,8.0,92,0.00,CLR,CLR,0.13,0.0,WeatherDisplay:10.37,2013-02-27 21:19:00,
2013-02-27 15:24:00,33.7,31.9,29.59,WNW,289,5.0,7.0,93,0.00,CLR,CLR,0.13,0.0,WeatherDisplay:10.37,2013-02-27 21:24:00,
2013-02-27 15:29:00,33.7,31.9,29.59,WNW,283,5.0,7.0,93,0.00,CLR,CLR,0.13,0.0,WeatherDisplay:10.37,2013-02-27 21:29:00,
2013-02-27 15:34:00,33.7,31.9,29.59,WNW,289,5.0,8.0,93,0.00,CLR,CLR,0.13,0.0,WeatherDisplay:10.37,2013-02-27 21:34:00,
2013-02-27 15:39:00,33.7,31.6,29.59,WNW,290,6.0,12.0,92,0.00,CLR,CLR,0.13,0.0,WeatherDisplay:10.37,2013-02-27 21:39:00,
2013-02-27 15:44:00,33.6,31.8,29.60,WNW,289,3.0,8.0,93,0.00,CLR,CLR,0.13,0.0,WeatherDisplay:10.37,2013-02-27 21:44:00,
2013-02-27 15:54:00,33.6,31.8,29.60,WNW,282,6.0,9.0,93,0.00,CLR,CLR,0.13,0.0,WeatherDisplay:10.37,2013-02-27 21:54:00,
2013-02-27 15:59:00,33.6,31.8,29.60,West,278,3.0,6.0,93,0.00,CLR,CLR,0.13,0.0,WeatherDisplay:10.37,2013-02-27 21:59:00,
2013-02-27 16:04:00,33.6,31.8,29.60,West,280,3.0,7.0,93,0.00,CLR,CLR,0.13,0.0,WeatherDisplay:10.37,2013-02-27 22:04:00,
2013-02-27 16:09:00,33.6,31.8,29.60,WNW,282,5.0,7.0,93,0.01,RA,RA,0.14,0.0,WeatherDisplay:10.37,2013-02-27 22:09:00,
2013-02-27 16:14:00,33.7,31.9,29.60,WNW,283,5.0,7.0,93,0.00,RA,RA,0.14,0.0,WeatherDisplay:10.37,2013-02-27 22:14:00,
2013-02-27 16:19:00,33.7,31.9,29.60,WNW,284,5.0,7.0,93,0.00,CLR,CLR,0.14,0.0,WeatherDisplay:10.37,2013-02-27 22:19:00,
2013-02-27 16:24:00,33.7,31.8,29.60,WNW,282,3.0,7.0,93,0.00,CLR,CLR,0.14,0.0,WeatherDisplay:10.37,2013-02-27 22:24:00,
2013-02-27 16:29:00,33.6,31.8,29.60,WNW,282,3.0,7.0,93,0.00,CLR,CLR,0.14,0.0,WeatherDisplay:10.37,2013-02-27 22:29:00,
2013-02-27 16:34:00,33.6,31.8,29.61,WNW,288,5.0,8.0,93,0.00,CLR,CLR,0.14,0.0,WeatherDisplay:10.37,2013-02-27 22:34:00,
2013-02-27 16:39:00,33.5,31.7,29.61,WNW,290,5.0,8.0,93,0.00,CLR,CLR,0.14,0.0,WeatherDisplay:10.37,2013-02-27 22:39:00,
2013-02-27 16:44:00,33.5,31.7,29.61,WNW,285,3.0,6.0,93,0.00,CLR,CLR,0.14,0.0,WeatherDisplay:10.37,2013-02-27 22:44:00,
2013-02-27 16:49:00,33.4,31.6,29.61,WNW,283,3.0,5.0,93,0.00,CLR,CLR,0.14,0.0,WeatherDisplay:10.37,2013-02-27 22:49:00,
2013-02-27 16:54:00,33.4,31.8,29.61,WNW,285,5.0,8.0,94,0.00,CLR,CLR,0.14,0.0,WeatherDisplay:10.37,2013-02-27 22:54:00,
2013-02-27 16:59:00,33.3,31.8,29.62,WNW,285,6.0,9.0,94,0.00,CLR,CLR,0.14,0.0,WeatherDisplay:10.37,2013-02-27 22:59:00,
2013-02-27 17:04:00,33.3,31.8,29.62,WNW,284,5.0,12.0,94,0.00,CLR,CLR,0.14,0.0,WeatherDisplay:10.37,2013-02-27 23:04:00,
2013-02-27 17:09:00,33.2,31.7,29.62,WNW,283,5.0,6.0,94,0.00,CLR,CLR,0.14,0.0,WeatherDisplay:10.37,2013-02-27 23:09:00,
2013-02-27 17:14:00,33.1,31.8,29.62,West,281,5.0,8.0,95,0.00,CLR,CLR,0.14,0.0,WeatherDisplay:10.37,2013-02-27 23:14:00,
2013-02-27 17:19:00,33.0,31.7,29.62,WNW,284,5.0,9.0,95,0.00,CLR,CLR,0.14,0.0,WeatherDisplay:10.37,2013-02-27 23:19:00,
2013-02-27 17:24:00,32.9,31.7,29.62,WNW,283,3.0,8.0,95,0.00,CLR,CLR,0.14,0.0,WeatherDisplay:10.37,2013-02-27 23:24:00,
2013-02-27 17:29:00,32.9,31.9,29.62,WNW,284,5.0,9.0,96,0.00,CLR,CLR,0.14,0.0,WeatherDisplay:10.37,2013-02-27 23:29:00,
2013-02-27 17:34:00,32.9,31.9,29.62,WNW,284,5.0,9.0,96,0.00,CLR,CLR,0.14,0.0,WeatherDisplay:10.37,2013-02-27 23:34:00,
2013-02-27 17:39:00,32.9,31.9,29.62,WNW,287,6.0,8.0,96,0.00,CLR,CLR,0.14,0.0,WeatherDisplay:10.37,2013-02-27 23:39:00,
2013-02-27 17:44:00,32.9,31.9,29.63,WNW,289,6.0,8.0,96,0.00,CLR,CLR,0.14,0.0,WeatherDisplay:10.37,2013-02-27 23:44:00,
2013-02-27 17:49:00,32.9,31.9,29.63,WNW,288,5.0,7.0,96,0.00,CLR,CLR,0.14,0.0,WeatherDisplay:10.37,2013-02-27 23:49:00,
2013-02-27 17:54:00,32.9,31.9,29.63,WNW,288,7.0,9.0,96,0.00,CLR,CLR,0.14,0.0,WeatherDisplay:10.37,2013-02-27 23:54:00,
2013-02-27 17:59:00,32.9,31.9,29.63,WNW,290,6.0,9.0,96,0.00,CLR,CLR,0.14,0.0,WeatherDisplay:10.37,2013-02-27 23:59:00,
2013-02-27 18:04:00,33.0,31.9,29.63,WNW,287,6.0,9.0,96,0.00,CLR,CLR,0.14,0.0,WeatherDisplay:10.37,2013-02-28 00:04:00,
2013-02-27 18:09:00,33.0,32.0,29.63,WNW,292,5.0,9.0,96,0.00,CLR,CLR,0.14,0.0,WeatherDisplay:10.37,2013-02-28 00:09:00,
2013-02-27 18:19:00,32.9,31.9,29.63,WNW,298,5.0,8.0,96,0.00,CLR,CLR,0.14,0.0,WeatherDisplay:10.37,2013-02-28 00:19:00,
2013-02-27 18:24:00,32.9,31.9,29.63,WNW,297,5.0,9.0,96,0.00,CLR,CLR,0.14,0.0,WeatherDisplay:10.37,2013-02-28 00:24:00,
2013-02-27 18:29:00,32.9,31.9,29.64,WNW,296,5.0,8.0,96,0.00,CLR,CLR,0.14,0.0,WeatherDisplay:10.37,2013-02-28 00:29:00,
2013-02-27 18:34:00,32.9,31.9,29.64,WNW,297,6.0,7.0,96,0.00,CLR,CLR,0.14,0.0,WeatherDisplay:10.37,2013-02-28 00:34:00,
2013-02-27 18:39:00,32.9,31.9,29.64,WNW,296,5.0,9.0,96,0.00,CLR,CLR,0.14,0.0,WeatherDisplay:10.37,2013-02-28 00:39:00,
2013-02-27 18:44:00,32.9,31.9,29.64,WNW,294,6.0,8.0,96,0.00,CLR,CLR,0.14,0.0,WeatherDisplay:10.37,2013-02-28 00:44:00,
2013-02-27 18:49:00,32.9,31.9,29.64,WNW,292,5.0,7.0,96,0.00,CLR,CLR,0.14,0.0,WeatherDisplay:10.37,2013-02-28 00:49:00,
2013-02-27 18:54:00,32.8,31.8,29.64,WNW,292,5.0,7.0,96,0.00,CLR,CLR,0.14,0.0,WeatherDisplay:10.37,2013-02-28 00:54:00,
2013-02-27 18:59:00,32.8,31.8,29.64,WNW,293,6.0,8.0,96,0.00,CLR,CLR,0.14,0.0,WeatherDisplay:10.37,2013-02-28 00:59:00,
2013-02-27 19:04:00,32.7,31.7,29.65,WNW,293,5.0,9.0,96,0.00,CLR,CLR,0.14,0.0,WeatherDisplay:10.37,2013-02-28 01:04:00,
2013-02-27 19:09:00,32.7,31.7,29.65,WNW,293,5.0,10.0,96,0.00,CLR,CLR,0.14,0.0,WeatherDisplay:10.37,2013-02-28 01:09:00,
2013-02-27 19:14:00,32.7,31.7,29.65,WNW,291,5.0,9.0,96,0.00,CLR,CLR,0.14,0.0,WeatherDisplay:10.37,2013-02-28 01:14:00,
2013-02-27 19:24:00,32.7,31.4,29.65,WNW,296,5.0,8.0,95,0.00,CLR,CLR,0.14,0.0,WeatherDisplay:10.37,2013-02-28 01:24:00,
2013-02-27 19:29:00,32.7,31.4,29.65,WNW,295,5.0,7.0,95,0.00,CLR,CLR,0.14,0.0,WeatherDisplay:10.37,2013-02-28 01:29:00,
2013-02-27 19:34:00,32.7,31.4,29.65,WNW,298,3.0,6.0,95,0.00,CLR,CLR,0.14,0.0,WeatherDisplay:10.37,2013-02-28 01:34:00,
2013-02-27 19:39:00,32.7,31.4,29.65,WNW,297,5.0,7.0,95,0.00,CLR,CLR,0.14,0.0,WeatherDisplay:10.37,2013-02-28 01:39:00,
2013-02-27 19:44:00,32.6,31.6,29.65,WNW,300,5.0,7.0,96,0.00,CLR,CLR,0.14,0.0,WeatherDisplay:10.37,2013-02-28 01:44:00,
2013-02-27 19:49:00,32.7,31.6,29.65,WNW,298,5.0,6.0,96,0.00,CLR,CLR,0.14,0.0,WeatherDisplay:10.37,2013-02-28 01:49:00,
2013-02-27 19:54:00,32.7,31.4,29.65,WNW,297,3.0,7.0,95,0.00,CLR,CLR,0.14,0.0,WeatherDisplay:10.37,2013-02-28 01:54:00,
2013-02-27 19:59:00,32.7,31.4,29.65,WNW,295,5.0,7.0,95,0.00,CLR,CLR,0.14,0.0,WeatherDisplay:10.37,2013-02-28 01:59:00,
2013-02-27 20:04:00,32.7,31.4,29.65,WNW,297,3.0,6.0,95,0.00,CLR,CLR,0.14,0.0,WeatherDisplay:10.37,2013-02-28 02:04:00,
2013-02-27 20:09:00,32.7,31.7,29.66,WNW,295,5.0,8.0,96,0.00,CLR,CLR,0.14,0.0,WeatherDisplay:10.37,2013-02-28 02:09:00,
2013-02-27 20:14:00,32.7,31.7,29.66,WNW,294,3.0,6.0,96,0.00,CLR,CLR,0.14,0.0,WeatherDisplay:10.37,2013-02-28 02:14:00,
2013-02-27 20:19:00,32.7,31.7,29.66,WNW,297,5.0,6.0,96,0.00,CLR,CLR,0.14,0.0,WeatherDisplay:10.37,2013-02-28 02:19:00,
2013-02-27 20:24:00,32.7,31.7,29.66,WNW,298,3.0,6.0,96,0.00,CLR,CLR,0.14,0.0,WeatherDisplay:10.37,2013-02-28 02:24:00,
2013-02-27 20:29:00,32.7,31.7,29.66,WNW,297,5.0,7.0,96,0.00,CLR,CLR,0.14,0.0,WeatherDisplay:10.37,2013-02-28 02:29:00,
2013-02-27 20:34:00,32.7,31.6,29.66,WNW,299,5.0,6.0,96,0.00,CLR,CLR,0.14,0.0,WeatherDisplay:10.37,2013-02-28 02:34:00,
2013-02-27 20:39:00,32.6,31.6,29.66,WNW,299,5.0,6.0,96,0.00,CLR,CLR,0.14,0.0,WeatherDisplay:10.37,2013-02-28 02:39:00,
2013-02-27 20:44:00,32.6,31.6,29.66,WNW,299,5.0,7.0,96,0.00,CLR,CLR,0.14,0.0,WeatherDisplay:10.37,2013-02-28 02:44:00,
2013-02-27 20:54:00,32.7,31.7,29.66,NW,304,5.0,7.0,96,0.00,CLR,CLR,0.14,0.0,WeatherDisplay:10.37,2013-02-28 02:54:00,
2013-02-27 20:59:00,32.7,31.7,29.66,WNW,296,5.0,6.0,96,0.00,CLR,CLR,0.14,0.0,WeatherDisplay:10.37,2013-02-28 02:59:00,
2013-02-27 21:04:00,32.7,31.7,29.66,WNW,296,3.0,6.0,96,0.00,CLR,CLR,0.14,0.0,WeatherDisplay:10.37,2013-02-28 03:04:00,
2013-02-27 21:09:00,32.7,31.7,29.66,WNW,293,5.0,8.0,96,0.00,CLR,CLR,0.14,0.0,WeatherDisplay:10.37,2013-02-28 03:09:00,
2013-02-27 21:14:00,32.7,31.4,29.67,WNW,295,5.0,9.0,95,0.00,CLR,CLR,0.14,0.0,WeatherDisplay:10.37,2013-02-28 03:14:00,
2013-02-27 21:19:00,32.7,31.4,29.66,WNW,297,5.0,6.0,95,0.00,CLR,CLR,0.14,0.0,WeatherDisplay:10.37,2013-02-28 03:19:00,
2013-02-27 21:24:00,32.7,31.7,29.66,WNW,297,5.0,8.0,96,0.00,CLR,CLR,0.14,0.0,WeatherDisplay:10.37,2013-02-28 03:24:00,
2013-02-27 21:29:00,32.6,31.6,29.67,WNW,299,5.0,7.0,96,0.00,CLR,CLR,0.14,0.0,WeatherDisplay:10.37,2013-02-28 03:29:00,
2013-02-27 21:34:00,32.6,31.6,29.67,WNW,298,5.0,8.0,96,0.00,CLR,CLR,0.14,0.0,WeatherDisplay:10.37,2013-02-28 03:34:00,
2013-02-27 21:39:00,32.6,31.6,29.67,WNW,297,5.0,7.0,96,0.00,CLR,CLR,0.14,0.0,WeatherDisplay:10.37,2013-02-28 03:39:00,
2013-02-27 21:44:00,32.6,31.6,29.67,WNW,297,5.0,8.0,96,0.00,CLR,CLR,0.14,0.0,WeatherDisplay:10.37,2013-02-28 03:44:00,
2013-02-27 21:54:00,32.5,31.5,29.67,WNW,302,3.0,7.0,96,0.00,CLR,CLR,0.14,0.0,WeatherDisplay:10.37,2013-02-28 03:54:00,
2013-02-27 21:59:00,32.4,31.4,29.67,WNW,303,5.0,7.0,96,0.00,CLR,CLR,0.14,0.0,WeatherDisplay:10.37,2013-02-28 03:59:00,
2013-02-27 22:04:00,32.4,31.4,29.67,WNW,303,3.0,6.0,96,0.00,CLR,CLR,0.14,0.0,WeatherDisplay:10.37,2013-02-28 04:04:00,
2013-02-27 22:09:00,32.3,31.3,29.67,WNW,302,5.0,7.0,96,0.00,CLR,CLR,0.14,0.0,WeatherDisplay:10.37,2013-02-28 04:09:00,
2013-02-27 22:14:00,32.3,31.3,29.67,NW,305,5.0,7.0,96,0.00,CLR,CLR,0.14,0.0,WeatherDisplay:10.37,2013-02-28 04:14:00,
2013-02-27 22:19:00,32.3,31.3,29.67,NW,305,5.0,7.0,96,0.00,CLR,CLR,0.14,0.0,WeatherDisplay:10.37,2013-02-28 04:19:00,
2013-02-27 22:24:00,32.3,31.3,29.67,NW,304,5.0,6.0,96,0.00,CLR,CLR,0.14,0.0,WeatherDisplay:10.37,2013-02-28 04:24:00,
2013-02-27 22:29:00,32.3,31.3,29.67,NW,304,5.0,7.0,96,0.00,CLR,CLR,0.14,0.0,WeatherDisplay:10.37,2013-02-28 04:29:00,
2013-02-27 22:34:00,32.3,31.3,29.67,NW,306,5.0,6.0,96,0.00,CLR,CLR,0.14,0.0,WeatherDisplay:10.37,2013-02-28 04:34:00,
2013-02-27 22:39:00,32.3,31.3,29.67,NW,307,5.0,7.0,96,0.00,CLR,CLR,0.14,0.0,WeatherDisplay:10.37,2013-02-28 04:39:00,
2013-02-27 22:44:00,32.3,31.3,29.67,NW,308,5.0,7.0,96,0.00,CLR,CLR,0.14,0.0,WeatherDisplay:10.37,2013-02-28 04:44:00,
2013-02-27 22:54:00,32.4,31.4,29.67,NW,312,3.0,8.0,96,0.00,CLR,CLR,0.14,0.0,WeatherDisplay:10.37,2013-02-28 04:54:00,
2013-02-27 22:59:00,32.4,31.4,29.67,NW,307,5.0,8.0,96,0.00,CLR,CLR,0.14,0.0,WeatherDisplay:10.37,2013-02-28 04:59:00,
2013-02-27 23:04:00,32.5,31.5,29.67,NW,305,5.0,9.0,96,0.00,CLR,CLR,0.14,0.0,WeatherDisplay:10.37,2013-02-28 05:04:00,
2013-02-27 23:09:00,32.6,31.6,29.68,NW,309,5.0,8.0,96,0.00,CLR,CLR,0.14,0.0,WeatherDisplay:10.37,2013-02-28 05:09:00,
2013-02-27 23:14:00,32.6,31.3,29.67,NW,307,5.0,8.0,95,0.00,CLR,CLR,0.14,0.0,WeatherDisplay:10.37,2013-02-28 05:14:00,
2013-02-27 23:19:00,32.7,31.4,29.68,NW,313,6.0,7.0,95,0.00,CLR,CLR,0.14,0.0,WeatherDisplay:10.37,2013-02-28 05:19:00,
2013-02-27 23:24:00,32.8,31.5,29.67,NW,315,5.0,8.0,95,0.00,CLR,CLR,0.14,0.0,WeatherDisplay:10.37,2013-02-28 05:24:00,
2013-02-27 23:29:00,32.8,31.5,29.68,NW,314,5.0,7.0,95,0.00,CLR,CLR,0.14,0.0,WeatherDisplay:10.37,2013-02-28 05:29:00,
2013-02-27 23:34:00,32.9,31.3,29.68,NW,310,6.0,8.0,94,0.00,CLR,CLR,0.14,0.0,WeatherDisplay:10.37,2013-02-28 05:34:00,
2013-02-27 23:39:00,32.9,31.4,29.68,NW,315,6.0,8.0,94,0.00,CLR,CLR,0.14,0.0,WeatherDisplay:10.37,2013-02-28 05:39:00,
2013-02-27 23:44:00,33.0,31.5,29.68,NW,318,6.0,8.0,94,0.00,CLR,CLR,0.14,0.0,WeatherDisplay:10.37,2013-02-28 05:44:00,
2013-02-27 23:49:00,33.0,31.5,29.68,NW,319,6.0,9.0,94,0.00,CLR,CLR,0.14,0.0,WeatherDisplay:10.37,2013-02-28 05:49:00,
2013-02-27 23:54:00,33.0,31.5,29.68,NW,317,6.0,8.0,94,0.00,RA,RA,0.00,0.0,WeatherDisplay:10.37,2013-02-28 05:54:00,
2013-02-27 23:59:00,33.0,31.5,29.68,NW,317,6.0,8.0,94,0.00,RA,RA,0.00,0.0,WeatherDisplay:10.37,2013-02-28 05:59:00,